Location: Blue Mountain Vista Observatory
(40.6992°N, 75.9422°W)
Time: 15:54:45
(UTC-04:00)

IDEFIX/ARIANE 42P - Visible Passes

Search period start: 04 August 2015 00:00
Search period end: 14 August 2015 00:00
Orbit: 784 x 804 km, 98.3° (Epoch: 04 August)

Date Brightness Start Highest point End Pass type
(mag) Time Alt. Az. Time Alt. Az. Time Alt. Az.
05 Aug 5.5 21:28:32 10° WSW 21:30:35 12° W 21:32:17 10° WNW visible
06 Aug 5.0 20:57:49 10° SW 21:01:54 22° W 21:05:52 10° NW visible
09 Aug 5.3 21:13:38 10° SW 21:16:54 16° W 21:19:56 10° NW visible
10 Aug 4.6 20:43:46 10° SSW 20:48:18 29° W 20:52:46 10° NW visible
12 Aug 5.6 21:30:19 10° WSW 21:31:56 11° W 21:33:12 10° WNW visible
13 Aug 5.1 20:59:17 10° SW 21:03:15 21° W 21:07:05 10° NW visible
